Regional Weather Roundup
Issued by NWS

Home | Current Version | Previous Version | Graphics & Text | Print | Product List | Glossary On
Versions: 1 2 3 4 5 6 7 8 9 10 11 12 13 14 15 16 17 18 19 20 21 22 23 24 25 26 27 28 29 30 31 32 33 34 35 36 37 38 39 40 41 42 43 44 45 46 47 48 49 50
066
ASUS43 KLMK 272202
RWRKY
KENTUCKY REGIONAL WEATHER ROUNDUP
NATIONAL WEATHER SERVICE LOUISVILLE KY
600 PM EDT SAT AUG 27 2016

NOTE "FAIR" INDICATES FEW OR NO CLOUDS BELOW 12,000 FEET
WITH NO SIGNIFICANT WEATHER AND/OR OBSTRUCTIONS TO VISIBILITY.

KYZ001>023-026-027-061>063-070>075-272300-
WESTERN AND SOUTH CENTRAL KENTUCKY

CITY           SKY/WX    TMP DP  RH WIND       PRES   REMARKS
PADUCAH        SUNNY     90  72  55 CALM      30.02F HX  97
HENDERSON      MOSUNNY   88  72  58 S6        30.03R HX  94
OWENSBORO      MOSUNNY   91  76  61 SW6       30.05S HX 102
HOPKINSVILLE   CLOUDY    89  72  56 CALM      30.05R HX  95
BOWLING GREEN  CLOUDY    87  76  69 CALM      30.05S HX  97
GLASGOW        CLOUDY    86  75  70 CALM      30.06S HX  95
$$

KYZ024-025-028>034-038-045-046-053-272300-
NORTH CENTRAL KENTUCKY

CITY           SKY/WX    TMP DP  RH WIND       PRES   REMARKS
LOUISVILLE/SDF CLOUDY    89  71  55 CALM      30.06R HX  95
LOUISVILLE/LOU PTSUNNY   89  72  56 SE3       30.07R HX  96
FORT KNOX      CLOUDY    88  76  66 N7        30.06R HX  99
$$

KYZ035>037-039>044-047>052-055>060-089>105-272300-
NORTHEAST KENTUCKY

CITY           SKY/WX    TMP DP  RH WIND       PRES   REMARKS
LEXINGTON      CLOUDY    84  72  67 N8        30.10R
COVINGTON      PTSUNNY   80  74  81 E8        30.10S
FRANKFORT      SUNNY     88  72  58 NE8       30.08R HX  94
$$

KYZ054-064>069-076>088-106>120-272300-
SOUTHEAST KENTUCKY

CITY           SKY/WX    TMP DP  RH WIND       PRES   REMARKS
JACKSON        SUNNY     91  71  51 NW5       30.11F HX  97
LONDON         SUNNY     91  67  44 E3        30.09F HX  94
SOMERSET       CLOUDY    82  70  65 N7        30.08S
MIDDLESBORO    MOSUNNY   92  72  51 SW5       30.08F HX  99
MONTICELLO     PTCLDY   N/A N/A N/A N16       30.09S
$$





USA.gov is the U.S. government's official web portal to all federal, state and local government web resources and services.